When you browse on this site, cookies collect data to enhance your experience and personalize the content and advertising you see.
Visit our Privacy Policy to learn more. By continuing to use the site, you agree to this use of cookies and data.
  • In Czech Republic
  • List of Countries
  • For 7 days
  • Water Temperature
  • Satellite Maps
  • Weather Map
  • Weather Widgets
  • user-avatar
    Login

    Hourly Weather Duala

    Today, 19 April, Friday

    Time Temperature Precipitation Wind Pressure Humidity
    00:00 +28°C° 0 mm 1 mps 757 mmHg 77%
    01:00 +28°C° 0 mm 1 mps 758 mmHg 79%
    02:00 +26°C° 0 mm 0 mps 757 mmHg 80%
    03:00 +25°C° 0 mm 0 mps 757 mmHg 82%
    04:00 +25°C° 0 mm 0 mps 757 mmHg 84%
    05:00 +25°C° 0 mm 0 mps 757 mmHg 84%
    06:00 +27°C° 0 mm 1 mps 757 mmHg 84%
    07:00 +28°C° 0 mm 1 mps 758 mmHg 84%
    08:00 +30°C° 0 mm 1 mps 758 mmHg 73%
    09:00 +33°C° 0 mm 1 mps 758 mmHg 63%
    10:00 +33°C° 0 mm 0 mps 758 mmHg 53%
    11:00 +36°C° 0 mm 1 mps 758 mmHg 49%
    12:00 +38°C° 0 mm 2 mps 757 mmHg 46%
    13:00 +39°C° 0 mm 2 mps 757 mmHg 42%
    14:00 +38°C° 0 mm 3 mps 756 mmHg 44%
    15:00 +38°C° 0 mm 3 mps 756 mmHg 46%
    16:00 +37°C° 0 mm 4 mps 755 mmHg 48%
    17:00 +35°C° 0 mm 3 mps 756 mmHg 55%
    18:00 +34°C° 0 mm 3 mps 756 mmHg 62%
    19:00 +31°C° 0 mm 3 mps 757 mmHg 68%
    20:00 +31°C° 0.2 mm 2 mps 757 mmHg 71%
    21:00 +30°C° 0.2 mm 2 mps 757 mmHg 74%
    22:00 +30°C° 0.2 mm 2 mps 758 mmHg 77%
    23:00 +30°C° 0.3 mm 2 mps 758 mmHg 78%

    Tomorrow, 20 April, Saturday

    Time Temperature Precipitation Wind Pressure Humidity
    00:00 +30°C° 0.3 mm 2 mps 758 mmHg 79%
    01:00 +29°C° 0.3 mm 2 mps 757 mmHg 80%
    02:00 +29°C° 0.3 mm 1 mps 757 mmHg 81%
    03:00 +29°C° 0.3 mm 1 mps 757 mmHg 83%
    04:00 +27°C° 0.3 mm 0 mps 757 mmHg 84%
    05:00 +27°C° 0 mm 0 mps 757 mmHg 84%
    06:00 +27°C° 0 mm 0 mps 757 mmHg 83%
    07:00 +27°C° 0 mm 0 mps 757 mmHg 83%
    08:00 +31°C° 0 mm 1 mps 758 mmHg 75%
    09:00 +33°C° 0 mm 1 mps 758 mmHg 66%
    10:00 +34°C° 0 mm 1 mps 758 mmHg 58%
    11:00 +36°C° 0.1 mm 2 mps 758 mmHg 55%
    12:00 +37°C° 0.1 mm 2 mps 757 mmHg 53%
    13:00 +38°C° 0.1 mm 2 mps 757 mmHg 50%
    14:00 +37°C° 0.3 mm 2 mps 756 mmHg 52%
    15:00 +37°C° 0.3 mm 3 mps 756 mmHg 55%
    16:00 +36°C° 0.3 mm 3 mps 755 mmHg 57%
    17:00 +35°C° 0 mm 3 mps 756 mmHg 63%
    18:00 +33°C° 0 mm 3 mps 756 mmHg 68%
    19:00 +31°C° 0 mm 3 mps 756 mmHg 73%
    20:00 +31°C° 0.2 mm 3 mps 757 mmHg 74%
    21:00 +30°C° 0.2 mm 2 mps 757 mmHg 76%
    22:00 +30°C° 0.2 mm 2 mps 757 mmHg 77%
    23:00 +30°C° 0.2 mm 2 mps 757 mmHg 78%

    Day after tomorrow, 21 April, Sunday

    Time Temperature Precipitation Wind Pressure Humidity
    00:00 +29°C° 0.2 mm 1 mps 757 mmHg 80%
    01:00 +29°C° 0.2 mm 1 mps 757 mmHg 82%
    02:00 +29°C° 0 mm 1 mps 757 mmHg 83%
    03:00 +29°C° 0 mm 1 mps 756 mmHg 84%
    04:00 +26°C° 0 mm 0 mps 756 mmHg 84%
    05:00 +28°C° 0 mm 1 mps 756 mmHg 84%
    06:00 +28°C° 0 mm 1 mps 756 mmHg 84%
    07:00 +28°C° 0 mm 1 mps 757 mmHg 85%
    08:00 +30°C° 0 mm 1 mps 757 mmHg 76%
    09:00 +30°C° 0 mm 0 mps 757 mmHg 67%
    10:00 +32°C° 0 mm 0 mps 758 mmHg 59%
    11:00 +35°C° 0 mm 1 mps 757 mmHg 55%
    12:00 +37°C° 0 mm 2 mps 756 mmHg 51%
    13:00 +38°C° 0 mm 2 mps 756 mmHg 47%
    14:00 +38°C° 0 mm 3 mps 755 mmHg 49%
    15:00 +37°C° 0 mm 3 mps 755 mmHg 51%
    16:00 +37°C° 0 mm 4 mps 754 mmHg 53%
    17:00 +35°C° 0 mm 3 mps 754 mmHg 59%
    18:00 +34°C° 0 mm 3 mps 755 mmHg 64%
    19:00 +31°C° 0 mm 3 mps 755 mmHg 69%
    20:00 +31°C° 0 mm 3 mps 756 mmHg 72%
    21:00 +31°C° 0 mm 2 mps 756 mmHg 74%
    22:00 +31°C° 0 mm 2 mps 757 mmHg 76%
    23:00 +30°C° 0.8 mm 2 mps 757 mmHg 77%

    22 April, Monday

    Time Temperature Precipitation Wind Pressure Humidity
    00:00 +30°C° 0.8 mm 1 mps 756 mmHg 78%
    01:00 +29°C° 0.8 mm 1 mps 756 mmHg 79%
    02:00 +29°C° 0.1 mm 1 mps 756 mmHg 81%
    03:00 +29°C° 0.1 mm 1 mps 756 mmHg 82%
    04:00 +29°C° 0.1 mm 1 mps 755 mmHg 83%
    05:00 +29°C° 0 mm 1 mps 756 mmHg 82%
    06:00 +29°C° 0 mm 1 mps 756 mmHg 81%
    07:00 +27°C° 0 mm 0 mps 756 mmHg 80%
    08:00 +30°C° 0 mm 1 mps 757 mmHg 74%
    09:00 +31°C° 0 mm 1 mps 757 mmHg 68%
    10:00 +33°C° 0 mm 1 mps 758 mmHg 62%
    11:00 +34°C° 0 mm 1 mps 757 mmHg 57%
    12:00 +36°C° 0 mm 2 mps 756 mmHg 51%
    13:00 +38°C° 0 mm 3 mps 755 mmHg 46%
    14:00 +37°C° 0 mm 3 mps 755 mmHg 48%
    15:00 +37°C° 0 mm 4 mps 754 mmHg 51%
    16:00 +36°C° 0 mm 4 mps 754 mmHg 53%
    17:00 +35°C° 0 mm 4 mps 754 mmHg 60%
    18:00 +33°C° 0 mm 3 mps 755 mmHg 68%
    19:00 +31°C° 0 mm 3 mps 755 mmHg 75%
    20:00 +31°C° 0 mm 3 mps 756 mmHg 77%
    21:00 +30°C° 0 mm 3 mps 756 mmHg 78%
    22:00 +30°C° 0 mm 2 mps 756 mmHg 80%
    23:00 +30°C° 0.2 mm 2 mps 756 mmHg 82%

    23 April, Tuesday

    Time Temperature Precipitation Wind Pressure Humidity
    00:00 +29°C° 0.2 mm 1 mps 756 mmHg 84%
    01:00 +29°C° 0.2 mm 1 mps 756 mmHg 86%
    02:00 +29°C° 0.1 mm 1 mps 756 mmHg 86%
    03:00 +26°C° 0.1 mm 0 mps 756 mmHg 87%
    04:00 +26°C° 0.1 mm 0 mps 755 mmHg 87%
    05:00 +26°C° 0 mm 0 mps 756 mmHg 86%
    06:00 +26°C° 0 mm 0 mps 756 mmHg 86%
    07:00 +27°C° 0 mm 0 mps 757 mmHg 85%
    08:00 +28°C° 0 mm 0 mps 757 mmHg 77%
    09:00 +30°C° 0 mm 0 mps 757 mmHg 69%
    10:00 +31°C° 0 mm 0 mps 757 mmHg 61%
    11:00 +35°C° 0 mm 1 mps 757 mmHg 55%
    12:00 +37°C° 0 mm 2 mps 756 mmHg 50%
    13:00 +38°C° 0 mm 2 mps 755 mmHg 45%
    14:00 +38°C° 0 mm 3 mps 755 mmHg 46%
    15:00 +38°C° 0 mm 3 mps 754 mmHg 48%
    16:00 +37°C° 0 mm 4 mps 753 mmHg 49%
    17:00 +35°C° 0.1 mm 4 mps 754 mmHg 57%
    18:00 +34°C° 0.1 mm 3 mps 755 mmHg 65%
    19:00 +31°C° 0.1 mm 3 mps 755 mmHg 73%
    20:00 +30°C° 0.1 mm 3 mps 756 mmHg 75%
    21:00 +30°C° 0.1 mm 2 mps 756 mmHg 78%
    22:00 +30°C° 0.1 mm 2 mps 757 mmHg 80%
    23:00 +30°C° 0 mm 1 mps 757 mmHg 81%

    24 April, Wednesday

    Time Temperature Precipitation Wind Pressure Humidity
    00:00 +29°C° 0 mm 1 mps 756 mmHg 82%
    01:00 +29°C° 0 mm 1 mps 756 mmHg 83%
    02:00 +29°C° 0.1 mm 1 mps 755 mmHg 85%
    03:00 +27°C° 0.1 mm 0 mps 755 mmHg 86%
    04:00 +26°C° 0.1 mm 0 mps 755 mmHg 87%
    05:00 +27°C° 0 mm 0 mps 755 mmHg 87%
    06:00 +27°C° 0 mm 0 mps 756 mmHg 86%
    07:00 +27°C° 0 mm 0 mps 756 mmHg 86%
    08:00 +29°C° 0.3 mm 0 mps 757 mmHg 76%
    09:00 +31°C° 0.3 mm 0 mps 757 mmHg 67%
    10:00 +34°C° 0.3 mm 0 mps 757 mmHg 57%
    11:00 +36°C° 0.3 mm 1 mps 756 mmHg 55%
    12:00 +38°C° 0.3 mm 2 mps 756 mmHg 52%
    13:00 +38°C° 0.3 mm 2 mps 755 mmHg 50%
    14:00 +38°C° 0 mm 3 mps 755 mmHg 50%
    15:00 +38°C° 0 mm 3 mps 754 mmHg 50%
    16:00 +38°C° 0 mm 4 mps 754 mmHg 50%
    17:00 +36°C° 0.1 mm 3 mps 754 mmHg 57%
    18:00 +34°C° 0.1 mm 3 mps 755 mmHg 64%
    19:00 +33°C° 0.1 mm 3 mps 756 mmHg 71%
    20:00 +31°C° 0.1 mm 2 mps 756 mmHg 72%
    21:00 +31°C° 0.1 mm 2 mps 757 mmHg 74%
    22:00 +31°C° 0.1 mm 2 mps 757 mmHg 76%
    23:00 +30°C° 0.1 mm 2 mps 757 mmHg 77%
    Show more